Weather History for Missoula, MT

Change the Weather History Date:

Sunday, November 6, 2011

  Actual Average Record
Temperature  
Mean Temperature 29 °F 37 °F  
Max Temperature 38 °F 47 °F 63 °F (2014)
Min Temperature 19 °F 28 °F 0 °F (2003)
Degree Days  
Heating Degree Days 36 28  
Month to date heating degree days 196 161  
Since 1 July heating degree days 922 1103  
Cooling Degree Days 0 0  
Month to date cooling degree days 0 0  
Year to date cooling degree days 290 332  
Moisture  
Dew Point 18 °F    
Average Humidity 62    
Maximum Humidity 84    
Minimum Humidity 40    
Precipitation  
Precipitation 0.00 in 0.03 in 0.55 in (1973)
Month to date precipitation 0.12 0.18  
Year to date precipitation 13.52 12.26  
Snow  
Snow 0.00 in - - ()
Month to date snowfall 0.4  
Year to date snowfall 43.3  
Since 1 July snowfall 0.4  
Snow Depth 0.00 in    
Sea Level Pressure  
Sea Level Pressure 30.02 in    
Wind  
Wind Speed 1 mph (WNW)    
Max Wind Speed 7 mph    
Max Gust Speed 8 mph    
Visibility 10 miles    
Events      
T = Trace of Precipitation, MM = Missing Value Source: NWS Daily Summary

Daily Weather History Graph

Daily Weather History Graph

Search for Another Location

Airport:

Trip Planner

Search our weather history database for the weather conditions in past years. The results will help you decide how hot, cold, wet, or windy it might be!

Date:

Astronomy

Nov. 06, 2011 Rise Set
Actual Time 7:26 AM MST 5:13 PM MST
Civil Twilight 6:53 AM MST 5:45 PM MST
Nautical Twilight 6:17 AM MST 6:21 PM MST
Astronomical Twilight 5:42 AM MST 6:57 PM MST
Moon 3:09 PM MST (11/6) 3:24 AM MST (11/6)
Length of Visible Light 10h 51m
Length of Day
9h 47m
Waxing Gibbous, 86% of the Moon is Illuminated
Nov 6
Waxing Gibbous
Nov 10
Full
Nov 18
Last Quarter
Nov 24
New
Dec 2
First Quarter

Hourly Weather History & Observations

Time (MST) Temp. Windchill Dew Point Humidity Pressure Visibility Wind Dir Wind Speed Gust Speed Precip Events Conditions
12:53 AM 25.0 °F - 19.9 °F 81% 29.92 in 10.0 mi Calm Calm - N/A   Clear
1:53 AM 25.0 °F - 19.0 °F 78% 29.93 in 10.0 mi Calm Calm - N/A   Clear
1:53 AM 21.0 °F - 16.0 °F 81% 29.94 in 10.0 mi Calm Calm - N/A   Clear
2:53 AM 19.0 °F - 14.0 °F 81% 29.95 in 10.0 mi Calm Calm - N/A   Clear
3:53 AM 21.9 °F - 17.1 °F 82% 29.95 in 10.0 mi Calm Calm - N/A   Overcast
4:53 AM 24.1 °F - 19.0 °F 81% 29.95 in 10.0 mi Calm Calm - N/A   Overcast
5:53 AM 24.1 °F - 19.0 °F 81% 29.97 in 10.0 mi Calm Calm - N/A   Overcast
6:53 AM 24.1 °F - 19.9 °F 84% 29.98 in 10.0 mi Calm Calm - N/A   Overcast
7:53 AM 24.1 °F - 19.0 °F 81% 30.00 in 10.0 mi Calm Calm - N/A   Overcast
8:53 AM 24.1 °F - 19.0 °F 81% 30.01 in 10.0 mi Calm Calm - N/A   Overcast
9:53 AM 26.1 °F - 19.9 °F 78% 30.02 in 10.0 mi Calm Calm - N/A   Mostly Cloudy
10:53 AM 28.9 °F - 19.9 °F 69% 30.03 in 10.0 mi Calm Calm - N/A   Clear
11:53 AM 30.0 °F 26.5 °F 19.9 °F 66% 30.03 in 10.0 mi SSE 3.5 mph - N/A   Partly Cloudy
12:53 PM 32.0 °F - 21.0 °F 64% 30.01 in 10.0 mi Calm Calm - N/A   Partly Cloudy
1:53 PM 35.1 °F 31.0 °F 17.1 °F 48% 30.02 in 10.0 mi SSW 4.6 mph - N/A   Clear
2:53 PM 36.0 °F - 17.1 °F 46% 30.02 in 10.0 mi Calm Calm - N/A   Partly Cloudy
3:53 PM 37.0 °F - 16.0 °F 42% 30.02 in 10.0 mi Calm Calm - N/A   Scattered Clouds
4:53 PM 36.0 °F 33.3 °F 18.0 °F 48% 30.04 in 10.0 mi North 3.5 mph - N/A   Overcast
5:53 PM 34.0 °F 31.0 °F 16.0 °F 48% 30.06 in 10.0 mi NW 3.5 mph - N/A   Overcast
6:53 PM 32.0 °F - 17.1 °F 54% 30.09 in 10.0 mi Calm Calm - N/A   Clear
7:53 PM 28.0 °F - 18.0 °F 66% 30.12 in 10.0 mi Calm Calm - N/A   Clear
8:53 PM 26.1 °F - 17.1 °F 69% 30.15 in 10.0 mi Calm Calm - N/A   Clear
9:53 PM 25.0 °F - 17.1 °F 72% 30.16 in 10.0 mi Calm Calm - N/A   Clear
10:53 PM 23.0 °F 18.4 °F 17.1 °F 78% 30.18 in 10.0 mi NNW 3.5 mph - N/A   Clear